Ellensburg, WA

2:06 AM PDT on March 24, 2017 (GMT -0700)
Bowers

Weather History for KELN - October, 2014

Change the Weather History Date:

Friday, October 3, 2014

  Actual Average (KYKM) Record (KYKM)
Temperature  
Mean Temperature 55 °F -  
Max Temperature 73 °F 71 °F 85 °F (2003)
Min Temperature 37 °F 38 °F 28 °F (1989)
Degree Days  
Heating Degree Days 10    
Growing Degree Days 5 (Base 50)    
Moisture  
Dew Point 37 °F    
Average Humidity 56    
Maximum Humidity 82    
Minimum Humidity 24    
Precipitation  
Precipitation 0.00 in - - ()
Sea Level Pressure  
Sea Level Pressure 30.31 in    
Wind  
Wind Speed 3 mph (East)    
Max Wind Speed 7 mph    
Max Gust Speed -    
Visibility 10 miles    
Events      
Averages and records for this station are not official NWS values.
T = Trace of Precipitation, MM = Missing Value Source: NWS Daily Summary

Daily Weather History Graph

Daily Weather History Graph

Search for Another Location

Airport or City:

Trip Planner

Search our weather history database for the weather conditions in past years. The results will help you decide how hot, cold, wet, or windy it might be!

Date:

Astronomy

Oct. 03, 2014 Rise Set
Actual Time 7:03 AM PDT 6:37 PM PDT
Civil Twilight 6:33 AM PDT 7:07 PM PDT
Nautical Twilight 5:58 AM PDT 7:43 PM PDT
Astronomical Twilight 5:22 AM PDT 8:18 PM PDT
Moon 3:51 PM PDT (10/3) 1:11 AM PDT (10/3)
Length of Visible Light 12h 34m
Length of Day
11h 33m
Waxing Gibbous, 72% of the Moon is Illuminated
Oct 3
Waxing Gibbous
Oct 8
Full
Oct 15
Last Quarter
Oct 23
New
Oct 30
First Quarter

Hourly Weather History & Observations

Time (PDT) Temp. Windchill Dew Point Humidity Pressure Visibility Wind Dir Wind Speed Gust Speed Precip Events Conditions
12:53 AM 46.0 °F 44.8 °F 35.1 °F 66% 30.35 in 10.0 mi North 3.5 mph - N/A   Clear
1:53 AM 43.0 °F 40.3 °F 35.1 °F 74% 30.35 in 10.0 mi ESE 4.6 mph - N/A   Clear
2:53 AM 44.1 °F - 35.1 °F 71% 30.36 in 10.0 mi Calm Calm - N/A   Clear
3:53 AM 41.0 °F 39.0 °F 34.0 °F 76% 30.35 in 10.0 mi East 3.5 mph - N/A   Clear
4:53 AM 41.0 °F 39.0 °F 35.1 °F 79% 30.36 in 10.0 mi ESE 3.5 mph - N/A   Clear
5:53 AM 39.9 °F 37.8 °F 34.0 °F 79% 30.37 in 10.0 mi East 3.5 mph - N/A   Clear
6:53 AM 37.0 °F - 32.0 °F 82% 30.39 in 10.0 mi Calm Calm - N/A   Clear
7:53 AM 41.0 °F 39.0 °F 36.0 °F 82% 30.39 in 10.0 mi North 3.5 mph - N/A   Clear
8:53 AM 48.9 °F - 37.0 °F 64% 30.39 in 10.0 mi Calm Calm - N/A   Clear
9:53 AM 54.0 °F - 37.9 °F 55% 30.38 in 10.0 mi East 3.5 mph - N/A   Clear
10:53 AM 57.9 °F - 41.0 °F 53% 30.37 in 10.0 mi Calm Calm - N/A   Clear
11:53 AM 64.0 °F - 39.0 °F 40% 30.35 in 10.0 mi Variable 3.5 mph - N/A   Clear
12:53 PM 70.0 °F - 34.0 °F 27% 30.32 in 10.0 mi East 5.8 mph - N/A   Clear
1:53 PM 72.0 °F - 34.0 °F 25% 30.30 in 10.0 mi ESE 6.9 mph - N/A   Clear
2:53 PM 73.0 °F - 34.0 °F 24% 30.27 in 10.0 mi ESE 5.8 mph - N/A   Clear
3:53 PM 73.9 °F - 35.1 °F 24% 30.26 in 10.0 mi SSE 6.9 mph - N/A   Clear
4:53 PM 72.0 °F - 35.1 °F 26% 30.25 in 10.0 mi SE 3.5 mph - N/A   Clear
5:53 PM 70.0 °F - 39.0 °F 32% 30.24 in 10.0 mi NE 4.6 mph - N/A   Clear
6:53 PM 59.0 °F - 43.0 °F 55% 30.25 in 10.0 mi NNE 5.8 mph - N/A   Clear
7:53 PM 57.9 °F - 39.9 °F 51% 30.24 in 10.0 mi East 3.5 mph - N/A   Clear
8:53 PM 52.0 °F - 39.0 °F 61% 30.23 in 10.0 mi North 3.5 mph - N/A   Clear
9:53 PM 51.1 °F - 39.0 °F 63% 30.23 in 10.0 mi NNW 6.9 mph - N/A   Clear
10:53 PM 48.9 °F - 37.0 °F 64% 30.23 in 10.0 mi Calm Calm - N/A   Clear
11:53 PM 48.0 °F - 37.0 °F 66% 30.22 in 10.0 mi ESE 4.6 mph - N/A   Clear